Retour au catalogue

WISDOM B

ActifScienceSSO
NORAD 66765·PAYLOAD·🇯🇵 Japan
Ce nom de satellite n'a pas encore été confirmé par des sources officielles.

Lancé Nov 28, 2025 depuis Vandenberg Space Force Base

Loading…

Prochains Passages (prochaines 24 heures)

TLE

FraisSource: Space-Track

Époque: Sep 14, 2026, 10:42 UTC

1 66765U 25276DD  26257.44647706  .00008314  00000-0  32963-3 0  9994
2 66765  97.4144 330.9576 0001040  75.4622 284.6732 15.25640419 44079

Suivez WISDOM B en temps réel avec AllMySat

Download on the App Store